Hourly Weather Roundup
Issued by NWS Central Illinois

Home | Current Version | Previous Version | Text Only | Print | Product List | Glossary On
Versions: 1 2 3 4 5 6 7 8 9 10 11 12 13 14 15 16 17 18 19 20 21 22 23 24 25 26 27 28 29 30 31 32 33 34 35 36 37 38 39 40 41 42 43 44 45 46 47 48 49 50
000
NZUS43 KILX 230310
HWRILX

Area Weather Roundup
National Weather Service Lincoln IL
1000 PM CDT MON MAY 22 2017

NOTE:  "FAIR" indicates few or no clouds below 12,000 feet, with
       no sigificant weather and/or obstructions to visibility.


CITY           SKY/WX    TMP DP  RH WIND       PRES   REMARKS
Bloomington    CLOUDY    58  56  93 S8        29.96F
Champaign      LGT RAIN  61  54  77 NW6       29.97F
Danville       CLOUDY    60  53  76 W3        29.96R
Decatur        CLOUDY    57  55  93 NE3       29.97S
Effingham      PTCLDY    60  58  94 CALM      29.98S
Flora          CLOUDY    64  56  76 CALM      29.97F
Galesburg      CLOUDY    58  55  90 S10       29.91F
Jacksonville   CLOUDY    59  58  96 NW8       29.97R
Lacon          RAIN      58  56  94 S8        29.93F
Lawrenceville  CLOUDY    65  50  58 S8        29.98F
Litchfield     CLOUDY    60  57  89 NE3       29.97R
$$


CITY           SKY/WX    TMP DP  RH WIND       PRES   REMARKS
Lincoln        CLOUDY    60  60  99 CALM      29.96R
Macomb         LGT RAIN  58  56  93 SW10      29.96F
Mattoon        PTCLDY    58  52  80 SE5       29.96F
Mt Carmel AP   CLOUDY    64  51  63 SE5       29.98F
Olney-Noble AP CLOUDY    63  55  77 CALM      29.98S
Paris AP       CLOUDY    58  53  82 CALM      29.99S
Peoria         CLOUDY    58  57  97 SW6       29.95S
Pontiac        CLOUDY    60  57  91 SW6       29.95F
Rantoul        LGT RAIN  63  56  79 CALM      29.97S
Robinson       CLOUDY    60  52  75 CALM      29.99S
Springfield    CLOUDY    60  60 100 SE5       29.96S
Taylorville    CLOUDY    59  57  92 NE3       29.97S
$$

...REGIONAL REPORTS...


CITY           SKY/WX    TMP DP  RH WIND       PRES   REMARKS
Chicago O`Hare CLOUDY    61  53  75 SW15G22   29.91S
Kankakee       CLOUDY    60  52  74 CALM      29.95F
Moline         CLOUDY    60  54  80 SW10      29.88S
Mount Sterling LGT RAIN  57  55  93 W5        29.97R
Mount Vernon     N/A     57  56  96 CALM      29.96F
Pittsfield     HVY RAIN  59  56  90 NW5       30.00R
Quincy         LGT RAIN  58  56  93 CALM      29.96S
Rockford       PTCLDY    59  54  83 S13       29.90R
$$


CITY           SKY/WX    TMP DP  RH WIND       PRES   REMARKS
Burlington     CLOUDY    59  56  89 SW14      29.91S
Cedar Rapids   CLOUDY    59  56  89 SW10      29.84F
Des Moines     CLOUDY    59  51  75 SW6       29.85F
Kirksville     LGT RAIN  56  55  97 S8        29.93F
Ottumwa        CLOUDY    57  54  89 S9        29.87F
St Louis       CLOUDY    72  48  42 S7        29.95R
$$


CITY           SKY/WX    TMP DP  RH WIND       PRES   REMARKS
Terre Haute    CLOUDY    59  54  83 CALM      29.99R
Evansville     CLOUDY    64  51  62 NE3       29.99F
Indianapolis   CLOUDY    63  47  55 S12       29.99R
Lafayette      PTCLDY    59  52  77 W5        29.97R
Madison        CLOUDY    60  55  83 S6        29.83S
Milwaukee      MOCLDY    63  54  72 SW9       29.87R
$$





USA.gov is the U.S. government's official web portal to all federal, state and local government web resources and services.